Regional Weather Roundup
Issued by NWS

Home | Current Version | Previous Version | Graphics & Text | Print | Product List | Glossary On
Versions: 1 2 3 4 5 6 7 8 9 10 11 12 13 14 15 16 17 18 19 20 21 22 23 24 25 26 27 28 29 30 31 32 33 34 35 36 37 38 39 40 41 42 43 44 45 46 47 48 49 50
000
ASUS43 KLOT 200108
RWRIL

ILLINOIS REGIONAL WEATHER ROUNDUP
NATIONAL WEATHER SERVICE CHICAGO/ROMEOVILLE IL
800 PM CDT SAT AUG 19 2017

NOTE: "FAIR" INDICATES FEW OR NO CLOUDS BELOW 12,000 FEET WITH NO
SIGNIFICANT WEATHER AND/OR OBSTRUCTIONS TO VISIBILITY.

* THESE STATIONS ARE NOT UNDER NWS QUALITY CONTROL. THEY ALSO MAY NOT
  REPORT WEATHER SUCH AS PRECIPITATION OR FOG.

ILZ001-002-007-009-015-016-024-200200-
NORTHWEST ILLINOIS

CITY           SKY/WX    TMP DP  RH WIND       PRES   REMARKS
MOLINE         CLEAR     73  63  70 E5        29.93S
STERLING*      CLEAR     72  65  78 S3        29.95S
SAVANNA*       CLEAR     72  65  77 SE5       29.94S
$$

ILZ003-004-008-010-011-017-018-200200-
NORTH CENTRAL ILLINOIS

CITY           SKY/WX    TMP DP  RH WIND       PRES   REMARKS
ROCKFORD       CLEAR     73  62  68 CALM      29.96S
FREEPORT*      CLEAR     70  64  82 CALM      29.97S
ROCHELLE*      CLEAR     71  65  83 S5        29.96S
DE KALB*       CLEAR     70  63  78 S3        29.97S
PERU*          CLEAR     74  59  58 S3        29.96S
$$

ILZ005-006-012>014-019>023-200200-
NORTHEAST ILLINOIS

CITY           SKY/WX    TMP DP  RH WIND       PRES   REMARKS
CHICAGO-OHARE  PTCLDY    76  55  48 E8        29.95S
CHICAGO-MIDWAY PTCLDY    77  54  44 E7        29.95S
AURORA         CLEAR     71  65  81 CALM      29.96S
LANSING*       CLEAR     74  50  43 E5        29.96S
JOLIET*        CLEAR     70  64  81 CALM      29.96S
WAUKEGAN       CLEAR     71  61  70 S5        29.95S
DUPAGE AIRPORT CLEAR     75  60  59 CALM      29.95S
WHEELING       CLEAR     74  58  57 SE5       29.97R
MORRIS*        CLEAR     75  57  53 CALM      29.95S
ROMEOVILLE*    CLEAR     73  57  58 W3        29.96S
NORTHERLY ISL    N/A     73  59  61 E7          N/A
$$

LMZ740>746-200200-
SOUTHERN LAKE MICHIGAN

STATION/POSITION SKY/WX   TEMP    WIND        PRES    VSBY  WAVE
                          AIR SEA DIR/SP/G                  HT/PER
                          (F)     (DEG/KT/KT) (MB)    (MI)  (FT/S)
SOUTHERN BUOY              72 72  170/ 10/ 10 1014.1S         1
WILMETTE HARBOR            74 73  150/ 10/ 12   N/A           1/ 2
HARRISON CRIB              75     120/  8/  8   N/A
CALUMET HARBOR             75      80/  7/  8 1014.0R
BURNS HARBOR               75      80/  6/  6 1014.9S
MICHIGAN CITY              73      60/  6/  6   N/A
MICHIGAN CITY 6N           74 75  100/  6/  6   N/A           1/ 3
ST. JOSEPH                 73 79   90/  4/  6 1014.5          1/ 4
$$

ILZ025>027-034>036-040-047-049-050-058-095>099-200200-
WEST-CENTRAL ILLINOIS

CITY           SKY/WX    TMP DP  RH WIND       PRES   REMARKS
QUINCY         CLEAR     81  68  64 E6        29.91S HX  84
GALESBURG*     CLEAR     74  64  69 E3        29.95S
MACOMB*        CLEAR     73  69  89 E3        29.96R
JACKSONVILLE*  CLEAR     77  68  74 NE6       29.93S
PITTSFIELD*    CLEAR     79  70  73 E3        29.93S HX  82
$$

ILZ028>032-037-038-041>044-048-051>054-059>061-200200-
CENTRAL ILLINOIS

CITY           SKY/WX    TMP DP  RH WIND       PRES   REMARKS
PONTIAC        CLEAR     70  66  89 CALM      29.96S
BLOOMINGTON    CLEAR     74  67  78 NE5       29.97S
DECATUR        CLEAR     78  70  76 NE3       29.94S HX  80
PEORIA         CLEAR     76  63  64 NE3       29.94S
LACON*         CLEAR     71  66  84 CALM      29.94S
LINCOLN*       CLEAR     75  67  76 CALM      29.94S
SPRINGFIELD    CLEAR     78  71  79 NE5       29.94R HX  80
TAYLORVILLE    CLEAR     76  72  87 CALM      29.94S
$$

ILZ033-039-045-046-055>057-062-063-200200-
EAST-CENTRAL ILLINOIS

CITY           SKY/WX    TMP DP  RH WIND       PRES   REMARKS
CHAMPAIGN      CLEAR     74  65  73 N3        29.95S
RANTOUL*       CLEAR     80  68  67 NE3       29.96R HX  82
MATTOON        CLEAR     77  71  82 CALM      29.93S
PARIS*         CLEAR     76  68  76 N3        29.95R
$$

ILZ079-100>102-200200-
SOUTHWEST ILLINOIS

CITY           SKY/WX    TMP DP  RH WIND       PRES   REMARKS
BELLEVILLE     CLEAR     82  71  69 NE3       29.93R HX  87
CAHOKIA*       CLEAR     82  66  58 CALM      29.91S HX  84
SPARTA*        CLEAR     80  72  75 CALM      29.93S HX  84
$$

ILZ064>066-069>071-074>076-080>082-084>086-088>090-092>094-200200-
SOUTH-CENTRAL ILLINOIS

CITY           SKY/WX    TMP DP  RH WIND       PRES   REMARKS
CARBONDALE     CLEAR     77  76  96 CALM      29.92S
CAIRO*         CLEAR     81  75  83 S3        29.92S HX  86
EFFINGHAM*     CLEAR     78  71  78 CALM      29.95R HX  80
MARION         CLEAR     79  77  94 CALM      29.94S HX  83
MT. VERNON       N/A     79  73  82 CALM      29.93S HX  82
CENTRALIA*     CLEAR     79  74  84 CALM      29.92S HX  82
SALEM*         CLEAR     77  72  84 CALM      29.93S
METROPOLIS*    CLEAR     79  73  82 CALM      29.93S HX  83
$$

ILZ067-068-072-073-078-083-087-091-200200-
SOUTHEAST ILLINOIS

CITY           SKY/WX    TMP DP  RH WIND       PRES   REMARKS
LAWRENCEVILLE  CLOUDY    80  71  74 SE3       29.93R HX  84
FLORA*         CLEAR     83  67  60 W5        29.93S HX  85
FAIRFIELD*     CLEAR     77  73  89 CALM      29.92S
HARRISBURG*    CLEAR     77  73  87 E3        29.93S
ROBINSON*      CLOUDY    73  71  95 CALM      29.94F
CARMI*         CLEAR     76  74  93 CALM      29.92S
$$

ABBREVIATIONS USED IN REMARKS
   TC - TEMPERATURE IN CELSIUS
  WCI - WIND CHILL INDEX
   HX - HEAT INDEX
  VSB - VISIBILITY
$$




USA.gov is the U.S. government's official web portal to all federal, state and local government web resources and services.